COSMOS 1771

Satellite information

Favourite Embed

Satellite Type and Status

PAYLOADIN ORBIT

Key statistics

Satellite COSMOS 1771 at a glance.

Uptime

14306

Days in orbit

Revolutions

≈ 13.8

Per day

Orbit

LEO

Low Earth Orbit

Inclination

65.0

Latest

Satellite identification and parameters

Extended collection of information and parameters for COSMOS 1771.

Object identification

Identified? True

Debris? False

Object name: COSMOS 1771

International designator: 1986-062A

Object number (NORAD): 16917

Object ID (CCSDS): 16917

Country: COMMONWEALTH OF INDEPENDENT STATES (CIS)

Current information (Y/N): Y

RCS size: LARGE

Orbital parameters

Period: 104.149 minutes

Inclination: 64.9822 deg

SMA: 7332.699 km

Apoapsis: 990.166 km

Periapsis: 918.962 km

RAAN: 253.4509 deg

Eccentricy: 0.00485528

Argument of periapsis: 359.0549 deg

Mean anomaly: 1.041 deg

Mean motion: 13.82633201 rev/day

Mean motion (dot): -0.00000059 rev/day2

B* drag term: 0.000026589834 1/REarth

Two-line elements (TLE)

Creation date: Oct. 20, 2025, 2:10 a.m.

Reference frame: TEME

Reference center: EARTH

Epoch: Oct. 19, 2025, 10:30 p.m. UTC

TLE line 0: 0 COSMOS 1771

TLE line 1: 1 16917U 86062A 25292.93779880 -.00000059 00000-0 26590-4 0 9998

TLE line 2: 2 16917 64.9822 253.4509 0048553 359.0549 1.0410 13.82633201978554

Live tracking on map

Real-time ground track for satellite COSMOS 1771.

In-orbit conjunctions

A list of the most updated potential collisions computed for object COSMOS 1771.

Target Orbit TCA Probability of collision Miss distance Type
COSMOS 1266 LEO 2025-04-23 15:31:36 0.0004423166 190.0 (m) PAYLOAD
METEOR 2-20 DEB LEO 2024-10-15 19:12:45 0.0004686829 516.0 (m) DEBRIS
CZ-6A DEB LEO 2024-09-19 11:48:05 0.0001911357 926.0 (m) DEBRIS
FENGYUN 1C DEB SSO 2024-08-03 13:59:07 0.0009807061 149.0 (m) DEBRIS

Associated space launch

Active radar satellite for ocean surveillance powered by a nuclear reactor.

COSMOS 1771 was lifted into orbit during the mission ‘Tsiklon-2 | US-A 29’, on board a Tsiklon-2 space rocket.

The launch took place on Aug. 20, 1986, 12:58 p.m. from 90.

For more information about the launch, click the button.

Launch to space Tsiklon-2 | US-A 29
Tsiklon-2 | US-A 29

Agency: N/A

Status: Launch Successful

Launch date: Aug. 20, 1986, 12:58 p.m. UTC

Rocket: Tsiklon-2

Launch pad: 90

Location: Baikonur Cosmodrome, Republic of Kazakhstan

...

Latest news about this satellite

There are no fresh news available about this satellite. Check back as we update our databases every day.


Newsletter sign-up

Weekly statistics, charts and insights to help you stay on top of the space industry.